Hourly Data Report for March 06, 2017

OTTAWA INTL A
ONTARIO

45°19'00.000" N
75°40'00.000" W
114.90 m
6106001
71628
YOW

Download Data

Hourly Data (March 2017)
Hourly Data Report for March 6, 2017
TIME
LST
Temp Definition
°C
Dew Point Definition
°C
Rel Hum Definition
%
Precip. Amount Definition
mm

Wind Dir Definition
10's deg

Wind Spd Definition
km/h
Visibility Definition
km
Stn Press Definition
kPa
Hmdx Definition


Wind Chill Definition


Weather Definition


00:00 -10.9 -17.9 57   8 8 24.1 101.97   -16 LegendNANA
01:00 -10.9 -17.9 57   9 11 24.1 101.94   -17 Mostly Cloudy
02:00 -10.6 -17.0 60   7 8 24.1 101.95   -15 LegendNANA
03:00 -10.8 -16.9 61   8 8 24.1 101.92   -15 LegendNANA
04:00 -10.7 -16.8 61   8 10 24.1 101.86   -16 Mostly Cloudy
05:00 -11.5 -18.0 59   6 10 24.1 101.87   -17 LegendNANA
06:00 -11.2 -18.4 56   8 18 24.1 101.72   -19 LegendNANA
07:00 -10.3 -17.5 56   7 13 24.1 101.77   -17 Mostly Cloudy
08:00 -9.4 -17.1 54   8 20 24.1 101.70   -17 LegendNANA
09:00 -7.8 -16.3 51   7 15 24.1 101.72   -14 LegendNANA
10:00 -6.5 -16.6 45   8 24 24.1 101.66   -14 Cloudy
11:00 -5.4 -15.0 47   8 18 24.1 101.57   -12 LegendNANA
12:00 -4.6 -13.3 51   6 15 24.1 101.50   -10 LegendNANA
13:00 -3.2 -13.3 46   8 26 24.1 101.38   -10 Cloudy
14:00 -3.2 -11.7 52   9 27 24.1 101.30   -10 LegendNANA
15:00 -2.6 -10.2 56   7 20 24.1 101.24   -9 Snow
16:00 -2.2 -10.6 53   9 21 24.1 101.22   -8 Snow
17:00 -2.5 -6.9 72   7 23 9.7 101.14   -9 Freezing Rain, Fog
18:00 -2.8 -6.8 74   4 7 9.7 101.23   -6 Fog
19:00 -3.3 -6.4 79   6 22 16.1 101.22   -10 Snow
20:00 -3.4 -5.3 87   7 16 12.9 101.16   -9 Freezing Rain
21:00 -3.3 -5.0 88   8 16 16.1 101.13   -9 Freezing Rain
22:00 -2.7 -3.8 92   8 18 12.9 101.04   -8 Freezing Rain
23:00 -2.6 -3.4 94   7 17 12.9 100.97   -8 Freezing Rain

Notes on Data Quality.

Legend

  • E = Estimated
  • M = Missing
  • NA = Not Available*
  • [empty] = Indicates an unobserved value
Date modified: